Weather History for KBYG - January, 2014

Change the Weather History Date:

Thursday, January 2, 2014

  Actual Average Record
Temperature  
Mean Temperature 30 °F 27 °F  
Max Temperature 43 °F 38 °F 58 °F (2008)
Min Temperature 17 °F 16 °F 3 °F (2002)
Degree Days  
Heating Degree Days 35 38  
Month to date heating degree days 78 76  
Since 1 July heating degree days 2876 3123  
Cooling Degree Days 0 0  
Month to date cooling degree days 0 0  
Year to date cooling degree days 0 0  
Moisture  
Dew Point 14 °F    
Average Humidity 57    
Maximum Humidity 69    
Minimum Humidity 44    
Precipitation  
Precipitation 0.00 in 0.01 in 0.01 in (2009)
Month to date precipitation 0.08 0.02  
Year to date precipitation 0.08 0.02  
Sea Level Pressure  
Sea Level Pressure 30.14 in    
Wind  
Wind Speed 6 mph (SW)    
Max Wind Speed 13 mph    
Max Gust Speed 14 mph    
Visibility 10 miles    
Events      
T = Trace of Precipitation, MM = Missing Value Source: NWS Daily Summary

Daily Weather History Graph

Daily Weather History Graph

Search for Another Location

Airport or City:

Trip Planner

Search our weather history database for the weather conditions in past years. The results will help you decide how hot, cold, wet, or windy it might be!

Date:

Astronomy

Jan. 02, 2014 Rise Set
Actual Time 7:43 AM MST 4:39 PM MST
Civil Twilight 7:09 AM MST 5:12 PM MST
Nautical Twilight 6:33 AM MST 5:48 PM MST
Astronomical Twilight 5:58 AM MST 6:24 PM MST
Moon 8:22 AM MST (1/2) 6:45 PM MST (1/2)
Length of Visible Light 10h 02m
Length of Day
8h 56m
Waxing Crescent, 3% of the Moon is Illuminated
Jan 2
Waxing Crescent
Jan 7
First Quarter
Jan 15
Full
Jan 23
Last Quarter
Jan 30
New

Hourly Weather History & Observations

Time (MST) Temp. Windchill Dew Point Humidity Pressure Visibility Wind Dir Wind Speed Gust Speed Precip Events Conditions
12:53 AM 19.9 °F 10.1 °F 8.1 °F 60% 30.28 in 10.0 mi WSW 8.1 mph - N/A   Clear
1:53 AM 19.0 °F 11.1 °F 8.1 °F 62% 30.29 in 10.0 mi WSW 5.8 mph - N/A   Clear
2:53 AM 19.0 °F 8.2 °F 8.1 °F 62% 30.30 in 10.0 mi WSW 9.2 mph - N/A   Clear
3:53 AM 19.0 °F - 6.1 °F 57% 30.29 in 10.0 mi Calm Calm - N/A   Clear
4:53 AM 19.0 °F 12.3 °F 7.0 °F 59% 30.29 in 10.0 mi WSW 4.6 mph - N/A   Clear
5:53 AM 19.9 °F 12.1 °F 7.0 °F 57% 30.29 in 10.0 mi SW 5.8 mph - N/A   Clear
6:53 AM 21.9 °F 13.4 °F 8.1 °F 55% 30.29 in 10.0 mi SSW 6.9 mph - N/A   Clear
7:53 AM 21.0 °F 10.6 °F 7.0 °F 55% 30.28 in 10.0 mi WSW 9.2 mph - N/A   Clear
8:53 AM 24.1 °F 17.0 °F 9.0 °F 53% 30.26 in 10.0 mi SSW 5.8 mph - N/A   Clear
9:53 AM 28.9 °F 21.1 °F 14.0 °F 54% 30.20 in 10.0 mi SE 8.1 mph - N/A   Clear
10:53 AM 27.0 °F 19.5 °F 14.0 °F 58% 30.21 in 10.0 mi SSE 6.9 mph - N/A   Clear
11:53 AM 26.1 °F 16.8 °F 15.1 °F 63% 30.17 in 10.0 mi SSE 9.2 mph - N/A   Clear
12:53 PM 27.0 °F 23.0 °F 17.1 °F 66% 30.13 in 10.0 mi SSE 3.5 mph - N/A   Clear
1:53 PM 30.9 °F 26.2 °F 19.0 °F 61% 30.11 in 10.0 mi Variable 4.6 mph - N/A   Overcast
2:53 PM 28.0 °F 24.2 °F 19.0 °F 69% 30.09 in 10.0 mi South 3.5 mph - N/A   Clear
3:53 PM 30.0 °F 22.4 °F 17.1 °F 59% 30.06 in 10.0 mi NNW 8.1 mph - N/A   Clear
4:53 PM 27.0 °F - 17.1 °F 66% 30.06 in 10.0 mi Calm Calm - N/A   Clear
5:53 PM 25.0 °F - 16.0 °F 69% 30.06 in 10.0 mi North - - N/A   Clear
6:53 PM 28.9 °F 20.4 °F 17.1 °F 61% 30.02 in 10.0 mi WSW 9.2 mph - N/A   Clear
7:53 PM 30.9 °F 24.3 °F 19.0 °F 61% 30.01 in 10.0 mi West 6.9 mph - N/A   Clear
8:53 PM 34.0 °F 26.0 °F 19.9 °F 56% 29.97 in 10.0 mi SW 10.4 mph - N/A   Clear
9:53 PM 39.9 °F - 19.0 °F 43% 29.90 in 10.0 mi Calm Calm - N/A   Clear
10:53 PM 37.0 °F 31.6 °F 19.9 °F 50% 29.89 in 10.0 mi SSW 6.9 mph - N/A   Clear
11:53 PM 39.0 °F 33.4 °F 19.9 °F 46% 29.86 in 10.0 mi SW 8.1 mph - N/A   Clear